Regional Weather Roundup
Issued by NWS Charleston, WV

Home | Current Version | Previous Version | Graphics & Text | Print | Product List | Glossary On
Versions: 1 2 3 4 5 6 7 8 9 10 11 12 13 14 15 16 17 18 19 20 21 22 23 24 25 26 27 28 29 30 31 32 33 34 35 36 37 38 39 40 41 42 43 44 45 46 47 48 49 50
000
ASUS41 KRLX 300910
RWRRLX
West Virginia Regional Weather Roundup
National Weather Service Charleston WV
500 AM EDT SAT MAY 30 2015

Note: "fair" indicates few or no clouds below 12,000 feet with no
significant weather and/or obstructions to visibility.

WVZ003-301000-
Northern Panhandle of West Virginia

CITY           SKY/WX    TMP DP  RH WIND       PRES   REMARKS
WHEELING       CLEAR     67  61  81 S7        30.11R
$$

WVZ009-301000-
Northwest West Virginia

CITY           SKY/WX    TMP DP  RH WIND       PRES   REMARKS
PARKERSBURG    PTCLDY    65  62  90 CALM      30.13S
$$

WVZ006-301000-
Western West Virginia

CITY           SKY/WX    TMP DP  RH WIND       PRES   REMARKS
HUNTINGTON     PTCLDY    66  65  96 S5        30.11S
$$

WVZ015-301000-
West Central West Virginia

CITY           SKY/WX    TMP DP  RH WIND       PRES   REMARKS
CHARLESTON     MOCLDY    64  63  96 CALM      30.13R FOG
$$

WVZ022-031-301000-
North Central West Virginia

CITY           SKY/WX    TMP DP  RH WIND       PRES   REMARKS
CLARKSBURG     MOCLDY    67  63  87 CALM      30.13S
MORGANTOWN     PTCLDY    69  60  73 CALM      30.14S
$$

WVZ025-035-042-045-301000-
Southern West Virginia

CITY           SKY/WX    TMP DP  RH WIND       PRES   REMARKS
BECKLEY        CLOUDY    64  59  83 S8        30.22S
LOGAN          CLOUDY    68  64  88 CALM      30.13S
BLUEFIELD      CLOUDY    64  59  83 SE3       30.24S
LEWISBURG      CLOUDY    61  59  93 CALM      30.23S FOG
$$

WVZ047-301000-
Northern Mountains of West Virginia

CITY           SKY/WX    TMP DP  RH WIND       PRES   REMARKS
ELKINS         CLOUDY    61  59  93 CALM      30.20R
$$

WVZ052-301000-
Eastern Panhandle of West Virginia

CITY           SKY/WX    TMP DP  RH WIND       PRES   REMARKS
MARTINSBURG    CLEAR     65  63  93 CALM      30.16S FOG
PETERSBURG     MOCLDY    62  60  94 CALM      30.17S FOG
$$



USA.gov is the U.S. government's official web portal to all federal, state and local government web resources and services.